Powrót do katalogu

JILIN 1

AktywnyNaukaSSO
NORAD 40961·PAYLOAD·🇨🇳 China

Wystrzelony Oct 7, 2015 z Jiuquan Satellite Launch Center

Loading…

Następne Przeloty (najbliższe 24 godziny)

TLE

ŚwieżeSource: Space-Track

Epoka: Sep 14, 2026, 13:37 UTC

1 40961U 15057D   26257.56749051  .00000513  00000-0  77274-4 0  9997
2 40961  97.6578 252.5316 0016332 337.6208  22.4289 14.78275663588818

Śledź JILIN 1 w czasie rzeczywistym z AllMySat

Download on the App Store